SCP
0 0 0 0 0 0 0 0 0 0 0 0 0 0 0 0 0 0 0 0 0 0 0 0 0 0 0 0 0 0 0 0 -0 0 0 0 0 0 0 0 0 0 0
0 0 0 0 0 0 0 0 0 0 0 0 0 0 0 0 0 0 0 0 0 0 0 0 0 0 0 0 0 0 0 0 0 0 0 0 0 0 0 0 0 0 0
-0 0 0 0 0 0 0 0 0 0 0 0 0 0 0 0 0 0 0 0 0 0 0 0 0 0 0 0 0 0 0 0 0 0 0 0 0 0 0 0 0 0 0
0 0 0 0 0 0 0 0 0 0 0 0 0 0 0 0 0 0 0 0 0 0 0 0 0 0 0 0 0 0 0 0 0 0 0 0 0 0 0 0 0 0 0
0 0 0 0 0 0 0 0 0 0 0 0 0 0 0 0 0 0 0 0 0 0 0 0 0 0 0 0 0 0 0 0 0 0 0 0 0 0 0 0 0 0 0
0 0 0 0 0 0 0 0 0 0 0 0 0 0 0 0 0 0 0 0 0 0 0 0 0 0 0 0 0 0 0 0 0 0 0 0 0 0 0 0 0 0 0
0 0 0 0 0 0 0 0 0 0 0 0 0 0 0 0 0 0 0 0 0 0 0 0 0 0 0 0 0 0 0 0 0 0 0 0 0 0 0 0 0 0 0
0 0 0 0 0 0 0 0 0 0 0 0 0 0 0 0 0 0 0 0 0 0 0 0 0 0 0 0 0 0 0 0 0 0 0 0 0 0 0 0 0 0 0
0 0 0 0 0 0 0 0 0 0 0 0 0 0 0 0 0 0 0 0 0 0 0 0 0 0 0 0 0 0 0 0 0 0 0 0 0 0 0 0 0 0 0
0 0 0 0 0 0 0 0 0 0 0 0 0 0 0 0 0 0 0 0 0 0 0 0 0 0 0 0 0 0 0 0 0 0 0 0 0 0 0 0 0 0 0
0 0 1 1 0 0 0 0 0 0 0 0 0 0 0 0 0 0 0 0 0 0 0 0 0 0 0 0 0 0 0 0 0 0 0 0 0 0 0 0 0 0 0
0 0 1 1 1 0 0 0 0 0 0 0 0 0 0 0 0 0 0 0 0 0 0 0 0 0 0 0 0 0 0 0 0 0 0 0 0 0 0 0 0 0 0
0 0 0 0 1 1 1 0 0 0 0 0 0 0 0 0 0 0 0 0 0 0 0 0 0 0 0 0 0 0 0 0 0 0 0 0 0 0 0 0 0 0 0
0 0 0 1 1 1 1 1 0 0 0 0 0 0 0 0 0 0 0 0 0 0 0 0 0 0 0 0 0 0 0 0 0 0 0 0 0 0 0 0 0 0 0
0 0 1 1 1 1 1 1 0 0 0 0 0 0 0 0 0 0 0 0 0 0 0 0 0 0 0 0 0 0 0 0 0 0 0 0 0 0 0 0 0 0 0
0 0 0 1 1 1 1 1 1 0 0 0 0 0 0 0 0 0 0 0 0 0 0 0 0 0 0 0 0 0 0 0 0 0 0 0 0 0 0 0 0 0 0
0 0 0 1 3 3 2 1 1 0 0 0 0 0 0 0 0 0 0 0 0 0 0 0 0 0 0 0 0 0 0 0 0 0 0 0 0 0 0 0 0 0 0
0 0 1 2 2 2 1 1 0 0 0 0 0 0 0 0 0 0 0 0 1 1 0 0 0 0 0 0 0 0 0 0 0 0 0 0 0 0 0 0 0 0 0
0 0 1 1 1 1 1 1 0 0 0 0 0 0 0 0 0 0 0 1 1 1 1 0 0 0 0 0 0 0 0 0 0 0 0 0 0 0 0 0 0 0 0
0 0 0 1 1 1 1 0 0 0 0 0 0 0 0 0 0 0 1 1 1 1 1 0 0 0 0 0 0 0 0 0 0 0 0 0 0 0 0 0 0 0 0
0 0 1 1 1 1 0 0 0 0 0 0 0 0 0 1 1 1 1 1 1 1 1 0 1 1 0 0 0 0 0 0 0 0 0 0 0 0 0 0 0 0 0
0 0 1 1 1 1 0 0 0 0 0 0 0 0 0 1 0 1 1 1 1 1 1 0 0 0 0 0 0 0 0 0 0 0 0 0 0 0 0 0 0 0 0
0 0 1 1 1 0 0 0 0 0 0 1 1 1 1 1 1 1 1 1 0 0 0 0 0 0 1 1 0 0 0 0 0 0 0 0 0 0 0 0 0 0 0
0 0 0 1 1 0 1 0 0 1 1 1 1 1 1 1 1 0 1 0 0 1 0 1 1 1 0 0 0 0 0 0 0 0 0 0 0 0 0 0 0 0 0
1 1 1 1 1 1 1 0 1 1 1 1 1 1 1 1 1 1 0 0 0 0 0 0 0 0 0 0 0 0 0 0 0 0 0 0 0 0 0 0 0 0 0
3 3 2 2 1 1 0 0 0 0 0 0 0 0 0 0 0 0 0 0 0 0 0 0 0 0 0 0 0 0 0 0 0 0 0 0 0 0 0 0 0 0 0
Wind_Speed_500mb
39 30 22 11 5 1 11 16 18 16 15 7 9 8 8 13 11 18 20 24 28 31 32 28 32 19 31 43 43 42 35 37 41 37 10 14 6 6 20 10 17 19 25
34 28 19 17 9 10 4 14 16 16 8 4 14 10 18 9 16 21 17 27 30 29 28 33 39 32 31 41 43 38 39 23 24 38 24 14 6 24 28 22 16 21 23
39 36 28 23 15 12 7 13 15 14 16 14 7 12 9 16 15 14 21 18 26 29 32 30 34 34 34 44 42 34 34 39 31 19 24 17 16 43 26 33 31 25 22
33 33 32 26 18 13 14 11 14 7 14 5 5 18 12 10 16 9 20 20 24 20 34 29 26 32 30 40 44 34 33 30 33 30 20 23 27 21 28 37 38 35 27
39 41 37 34 25 23 10 18 16 10 10 6 3 7 2 1 8 19 12 16 18 27 33 31 27 30 25 35 36 36 33 33 27 32 23 24 25 21 31 40 42 38 32
30 33 37 36 26 23 18 17 9 13 8 4 6 7 6 10 10 18 18 12 15 21 33 33 28 27 32 28 33 30 35 30 27 30 27 25 33 39 33 39 36 38 34
31 37 35 36 34 27 22 16 15 10 10 3 5 8 6 13 14 10 12 9 13 21 31 33 25 27 29 32 26 24 41 38 31 31 30 24 25 28 34 33 33 36 33
28 38 36 37 33 33 26 22 23 11 15 8 9 9 11 1 4 16 14 2 12 19 25 29 23 22 22 28 21 20 27 36 39 34 33 35 22 24 27 30 32 36 29
24 33 42 39 31 34 27 25 19 15 20 14 15 9 9 15 9 19 17 16 12 18 22 24 27 25 22 29 32 25 26 29 32 35 34 36 31 30 25 28 24 26 23
19 17 52 41 32 30 26 25 22 19 19 15 15 11 14 11 14 14 22 25 23 21 21 19 26 27 24 30 32 34 29 32 29 28 28 34 30 31 27 35 22 23 20
23 30 38 40 36 30 26 28 23 22 20 20 18 20 21 15 18 19 15 28 28 22 23 23 23 25 27 27 32 32 33 32 32 27 23 31 29 30 25 29 25 22 26
19 28 39 41 37 32 29 32 25 18 16 19 18 20 23 19 21 22 23 24 27 26 25 23 24 25 25 27 34 35 34 32 33 36 28 24 29 27 24 19 19 22 28
7 10 31 36 34 32 31 26 24 16 15 19 20 22 25 24 25 28 27 29 25 26 27 27 27 27 30 31 32 36 35 35 37 37 40 32 28 31 30 31 20 20 25
16 17 16 31 35 35 34 29 21 15 16 18 18 18 21 25 29 31 31 31 26 28 27 31 30 32 30 31 38 34 37 51 53 47 41 42 32 32 33 43 34 25 29
10 12 16 16 29 33 29 24 21 17 18 18 18 19 22 26 26 28 29 32 28 28 26 33 35 35 38 39 40 42 47 52 56 50 45 37 38 37 36 39 38 34 32
41 6 11 19 22 25 23 22 21 19 18 18 19 18 20 22 26 29 33 31 29 31 36 39 38 40 43 39 42 47 54 58 59 58 51 40 44 33 39 40 39 34 34
34 37 13 11 21 14 21 18 17 16 20 18 18 20 22 24 28 30 31 34 35 39 42 42 43 45 47 48 44 46 56 63 65 65 49 42 40 41 44 42 39 34 34
28 27 17 17 10 13 8 13 14 16 16 18 17 21 23 26 28 32 38 38 42 45 49 50 53 53 54 54 54 50 55 62 64 59 48 49 46 40 35 36 38 40 41
20 15 16 10 9 8 12 11 10 11 14 18 20 21 24 27 29 35 41 48 50 51 54 57 60 61 67 68 68 65 66 67 65 60 44 45 48 48 39 34 41 44 45
15 15 13 9 11 12 11 7 7 11 15 18 20 22 25 31 38 41 45 47 51 58 61 68 70 69 74 78 72 71 70 59 55 62 49 41 39 39 38 40 45 45 49
13 12 11 11 13 11 6 1 7 11 16 19 21 23 27 35 43 44 52 58 65 72 75 72 66 66 75 80 71 61 75 68 72 53 40 45 52 45 48 49 44 48 52
7 8 10 8 10 8 6 1 6 13 16 20 24 30 34 40 45 54 61 62 69 75 79 71 67 62 71 76 71 63 62 52 50 57 54 56 57 55 59 59 58 56 48
1 2 4 3 3 4 3 2 9 14 19 27 30 35 40 43 50 57 63 68 68 66 69 73 73 72 61 69 62 54 65 60 42 38 43 52 59 68 68 65 61 56 64
4 4 4 1 3 2 8 26 24 18 28 40 32 37 46 47 52 53 54 56 55 58 60 68 64 62 62 58 52 56 57 57 53 47 45 52 60 66 65 65 67 65 66
2 2 6 6 7 6 27 15 20 25 31 31 35 35 38 45 50 48 51 54 53 57 57 61 66 56 55 48 47 53 56 54 53 57 59 58 55 52 52 54 56 52 44
11 12 7 6 15 19 9 20 22 23 25 29 35 38 40 43 48 47 52 52 51 57 51 58 56 44 46 49 54 53 58 61 60 64 56 52 53 56 57 49 51 45 45
Wind_Direction_500mb
162 163 159 175 244 132 345 6 359 43 73 12 40 39 45 15 24 353 357 353 8 360 1 19 348 27 10 340 346 357 5 8 337 348 23 352 237 301 349 343 317 327 326
157 163 169 178 199 244 326 335 3 13 85 46 3 30 29 35 21 357 355 353 358 4 6 11 3 32 14 336 354 360 355 357 357 0 6 349 291 328 344 335 338 326 327
171 173 184 193 203 225 248 302 345 13 27 80 346 75 39 10 354 15 325 2 348 360 7 8 3 14 358 347 2 10 3 1 13 24 9 352 344 345 343 349 338 323 323
188 181 178 183 183 221 241 276 318 46 336 89 31 55 38 1 360 355 342 5 340 352 350 358 11 6 5 353 0 13 11 6 0 8 12 343 328 321 323 338 342 331 321
184 177 188 182 180 198 223 228 311 342 342 9 65 95 256 237 346 339 17 358 354 339 337 352 7 357 15 356 7 18 11 6 2 4 350 349 334 335 334 326 336 332 342
198 173 183 164 161 181 192 226 280 303 328 349 322 351 359 353 54 14 8 342 353 333 325 346 2 358 6 3 0 7 3 0 358 359 4 354 345 335 334 333 330 325 341
180 169 162 163 161 191 185 218 238 265 284 274 258 289 331 29 25 326 290 1 337 333 323 344 352 359 358 8 12 352 354 9 6 353 350 345 342 343 334 338 337 336 339
194 173 176 173 171 187 188 194 241 247 253 239 243 272 310 39 320 280 313 342 340 314 325 337 337 346 345 343 352 357 350 351 358 350 345 345 331 323 334 334 334 335 345
191 163 176 174 171 183 190 200 207 227 234 234 257 279 291 314 312 311 339 313 305 307 308 332 326 336 333 337 347 348 351 345 356 350 348 357 343 3 332 330 334 334 329
171 209 167 168 167 180 197 202 214 223 246 249 256 274 257 302 293 310 312 318 320 310 322 318 321 327 325 323 331 343 339 340 342 345 337 340 344 353 339 340 319 331 328
210 196 162 167 165 178 193 211 203 209 237 244 237 240 263 262 281 290 299 305 319 315 316 327 310 322 318 317 316 331 338 333 325 331 321 333 340 340 351 347 348 333 337
204 165 168 171 171 182 194 219 203 216 239 249 253 256 265 270 273 283 289 292 306 310 306 315 317 307 309 316 310 319 325 330 323 323 311 309 318 326 327 331 328 347 334
178 168 160 169 185 186 200 216 230 219 221 242 254 268 275 283 286 287 291 289 294 301 302 307 316 317 313 299 299 305 318 311 306 307 307 303 293 303 306 321 321 325 319
167 205 197 186 192 195 204 208 229 226 245 250 246 251 263 269 277 279 280 290 299 298 302 303 304 304 303 309 309 309 293 299 304 305 299 303 298 288 287 303 311 307 309
149 177 196 208 190 196 194 210 223 233 241 252 255 262 272 286 287 292 290 293 289 296 292 293 300 303 303 298 298 300 300 310 312 308 302 294 293 289 295 298 300 305 310
12 15 217 202 183 193 186 213 220 238 257 255 263 270 277 277 280 284 293 302 306 302 297 293 288 287 287 290 290 292 298 307 311 310 307 298 291 296 297 288 298 303 308
5 1 16 163 174 178 196 202 231 239 250 264 276 282 284 286 285 288 290 293 295 296 296 298 297 294 293 293 291 290 296 303 308 308 306 300 299 285 286 287 288 293 295
16 9 49 96 128 152 188 207 226 251 257 274 281 285 284 284 285 284 286 291 294 299 302 304 303 300 299 300 298 293 290 294 299 304 306 303 298 310 296 290 290 293 296
41 37 55 94 159 154 183 202 228 261 273 281 284 287 286 289 288 287 293 293 294 301 304 305 305 301 304 304 305 298 289 291 294 293 291 292 295 299 303 291 287 290 303
80 95 114 126 141 149 178 198 259 280 279 285 290 287 285 282 286 288 296 306 302 302 305 305 305 302 298 301 309 310 297 288 284 282 285 297 299 299 291 296 298 288 303
105 118 126 140 150 156 149 265 307 309 301 292 290 288 286 287 292 307 314 307 309 309 307 305 309 310 311 312 305 300 299 297 293 291 277 282 283 283 288 296 292 295 306
103 127 143 156 148 141 132 92 327 314 307 305 307 300 297 297 297 299 304 303 303 304 304 303 295 313 316 315 314 315 316 324 315 301 289 281 279 284 284 283 286 292 294
355 266 175 163 133 126 147 320 323 309 312 299 304 313 311 304 300 299 302 306 311 310 315 316 322 330 332 339 328 322 326 333 327 305 291 284 278 275 285 276 280 283 280
159 269 319 258 324 11 62 335 313 300 296 311 318 312 310 316 311 316 320 319 323 326 328 326 326 324 329 332 329 327 333 334 332 326 306 294 293 294 297 288 288 284 275
182 135 354 10 35 73 326 358 314 314 332 330 334 332 328 326 333 333 332 333 329 328 331 331 328 324 334 343 346 343 343 337 332 331 328 322 316 312 308 302 301 301 288
91 111 84 29 7 9 19 349 340 331 332 331 333 336 331 330 331 339 339 337 345 345 351 351 350 347 336 344 348 339 336 331 329 328 337 330 322 316 315 309 314 308 290
Wind_Speed_850mb
39 30 22 11 5 1 11 16 18 16 15 7 9 8 8 13 11 18 20 24 28 31 32 28 32 19 31 43 43 42 35 37 41 37 10 14 6 6 20 10 17 19 25
34 28 19 17 9 10 4 14 16 16 8 4 14 10 18 9 16 21 17 27 30 29 28 33 39 32 31 41 43 38 39 23 24 38 24 14 6 24 28 22 16 21 23
39 36 28 23 15 12 7 13 15 14 16 14 7 12 9 16 15 14 21 18 26 29 32 30 34 34 34 44 42 34 34 39 31 19 24 17 16 43 26 33 31 25 22
33 33 32 26 18 13 14 11 14 7 14 5 5 18 12 10 16 9 20 20 24 20 34 29 26 32 30 40 44 34 33 30 33 30 20 23 27 21 28 37 38 35 27
39 41 37 34 25 23 10 18 16 10 10 6 3 7 2 1 8 19 12 16 18 27 33 31 27 30 25 35 36 36 33 33 27 32 23 24 25 21 31 40 42 38 32
30 33 37 36 26 23 18 17 9 13 8 4 6 7 6 10 10 18 18 12 15 21 33 33 28 27 32 28 33 30 35 30 27 30 27 25 33 39 33 39 36 38 34
31 37 35 36 34 27 22 16 15 10 10 3 5 8 6 13 14 10 12 9 13 21 31 33 25 27 29 32 26 24 41 38 31 31 30 24 25 28 34 33 33 36 33
28 38 36 37 33 33 26 22 23 11 15 8 9 9 11 1 4 16 14 2 12 19 25 29 23 22 22 28 21 20 27 36 39 34 33 35 22 24 27 30 32 36 29
24 33 42 39 31 34 27 25 19 15 20 14 15 9 9 15 9 19 17 16 12 18 22 24 27 25 22 29 32 25 26 29 32 35 34 36 31 30 25 28 24 26 23
19 17 52 41 32 30 26 25 22 19 19 15 15 11 14 11 14 14 22 25 23 21 21 19 26 27 24 30 32 34 29 32 29 28 28 34 30 31 27 35 22 23 20
23 30 38 40 36 30 26 28 23 22 20 20 18 20 21 15 18 19 15 28 28 22 23 23 23 25 27 27 32 32 33 32 32 27 23 31 29 30 25 29 25 22 26
19 28 39 41 37 32 29 32 25 18 16 19 18 20 23 19 21 22 23 24 27 26 25 23 24 25 25 27 34 35 34 32 33 36 28 24 29 27 24 19 19 22 28
7 10 31 36 34 32 31 26 24 16 15 19 20 22 25 24 25 28 27 29 25 26 27 27 27 27 30 31 32 36 35 35 37 37 40 32 28 31 30 31 20 20 25
16 17 16 31 35 35 34 29 21 15 16 18 18 18 21 25 29 31 31 31 26 28 27 31 30 32 30 31 38 34 37 51 53 47 41 42 32 32 33 43 34 25 29
10 12 16 16 29 33 29 24 21 17 18 18 18 19 22 26 26 28 29 32 28 28 26 33 35 35 38 39 40 42 47 52 56 50 45 37 38 37 36 39 38 34 32
41 6 11 19 22 25 23 22 21 19 18 18 19 18 20 22 26 29 33 31 29 31 36 39 38 40 43 39 42 47 54 58 59 58 51 40 44 33 39 40 39 34 34
34 37 13 11 21 14 21 18 17 16 20 18 18 20 22 24 28 30 31 34 35 39 42 42 43 45 47 48 44 46 56 63 65 65 49 42 40 41 44 42 39 34 34
28 27 17 17 10 13 8 13 14 16 16 18 17 21 23 26 28 32 38 38 42 45 49 50 53 53 54 54 54 50 55 62 64 59 48 49 46 40 35 36 38 40 41
20 15 16 10 9 8 12 11 10 11 14 18 20 21 24 27 29 35 41 48 50 51 54 57 60 61 67 68 68 65 66 67 65 60 44 45 48 48 39 34 41 44 45
15 15 13 9 11 12 11 7 7 11 15 18 20 22 25 31 38 41 45 47 51 58 61 68 70 69 74 78 72 71 70 59 55 62 49 41 39 39 38 40 45 45 49
13 12 11 11 13 11 6 1 7 11 16 19 21 23 27 35 43 44 52 58 65 72 75 72 66 66 75 80 71 61 75 68 72 53 40 45 52 45 48 49 44 48 52
7 8 10 8 10 8 6 1 6 13 16 20 24 30 34 40 45 54 61 62 69 75 79 71 67 62 71 76 71 63 62 52 50 57 54 56 57 55 59 59 58 56 48
1 2 4 3 3 4 3 2 9 14 19 27 30 35 40 43 50 57 63 68 68 66 69 73 73 72 61 69 62 54 65 60 42 38 43 52 59 68 68 65 61 56 64
4 4 4 1 3 2 8 26 24 18 28 40 32 37 46 47 52 53 54 56 55 58 60 68 64 62 62 58 52 56 57 57 53 47 45 52 60 66 65 65 67 65 66
2 2 6 6 7 6 27 15 20 25 31 31 35 35 38 45 50 48 51 54 53 57 57 61 66 56 55 48 47 53 56 54 53 57 59 58 55 52 52 54 56 52 44
11 12 7 6 15 19 9 20 22 23 25 29 35 38 40 43 48 47 52 52 51 57 51 58 56 44 46 49 54 53 58 61 60 64 56 52 53 56 57 49 51 45 45
Wind_Direction_850mb
162 163 159 175 244 132 345 6 359 43 73 12 40 39 45 15 24 353 357 353 8 360 1 19 348 27 10 340 346 357 5 8 337 348 23 352 237 301 349 343 317 327 326
157 163 169 178 199 244 326 335 3 13 85 46 3 30 29 35 21 357 355 353 358 4 6 11 3 32 14 336 354 360 355 357 357 0 6 349 291 328 344 335 338 326 327
171 173 184 193 203 225 248 302 345 13 27 80 346 75 39 10 354 15 325 2 348 360 7 8 3 14 358 347 2 10 3 1 13 24 9 352 344 345 343 349 338 323 323
188 181 178 183 183 221 241 276 318 46 336 89 31 55 38 1 360 355 342 5 340 352 350 358 11 6 5 353 0 13 11 6 0 8 12 343 328 321 323 338 342 331 321
184 177 188 182 180 198 223 228 311 342 342 9 65 95 256 237 346 339 17 358 354 339 337 352 7 357 15 356 7 18 11 6 2 4 350 349 334 335 334 326 336 332 342
198 173 183 164 161 181 192 226 280 303 328 349 322 351 359 353 54 14 8 342 353 333 325 346 2 358 6 3 0 7 3 0 358 359 4 354 345 335 334 333 330 325 341
180 169 162 163 161 191 185 218 238 265 284 274 258 289 331 29 25 326 290 1 337 333 323 344 352 359 358 8 12 352 354 9 6 353 350 345 342 343 334 338 337 336 339
194 173 176 173 171 187 188 194 241 247 253 239 243 272 310 39 320 280 313 342 340 314 325 337 337 346 345 343 352 357 350 351 358 350 345 345 331 323 334 334 334 335 345
191 163 176 174 171 183 190 200 207 227 234 234 257 279 291 314 312 311 339 313 305 307 308 332 326 336 333 337 347 348 351 345 356 350 348 357 343 3 332 330 334 334 329
171 209 167 168 167 180 197 202 214 223 246 249 256 274 257 302 293 310 312 318 320 310 322 318 321 327 325 323 331 343 339 340 342 345 337 340 344 353 339 340 319 331 328
210 196 162 167 165 178 193 211 203 209 237 244 237 240 263 262 281 290 299 305 319 315 316 327 310 322 318 317 316 331 338 333 325 331 321 333 340 340 351 347 348 333 337
204 165 168 171 171 182 194 219 203 216 239 249 253 256 265 270 273 283 289 292 306 310 306 315 317 307 309 316 310 319 325 330 323 323 311 309 318 326 327 331 328 347 334
178 168 160 169 185 186 200 216 230 219 221 242 254 268 275 283 286 287 291 289 294 301 302 307 316 317 313 299 299 305 318 311 306 307 307 303 293 303 306 321 321 325 319
167 205 197 186 192 195 204 208 229 226 245 250 246 251 263 269 277 279 280 290 299 298 302 303 304 304 303 309 309 309 293 299 304 305 299 303 298 288 287 303 311 307 309
149 177 196 208 190 196 194 210 223 233 241 252 255 262 272 286 287 292 290 293 289 296 292 293 300 303 303 298 298 300 300 310 312 308 302 294 293 289 295 298 300 305 310
12 15 217 202 183 193 186 213 220 238 257 255 263 270 277 277 280 284 293 302 306 302 297 293 288 287 287 290 290 292 298 307 311 310 307 298 291 296 297 288 298 303 308
5 1 16 163 174 178 196 202 231 239 250 264 276 282 284 286 285 288 290 293 295 296 296 298 297 294 293 293 291 290 296 303 308 308 306 300 299 285 286 287 288 293 295
16 9 49 96 128 152 188 207 226 251 257 274 281 285 284 284 285 284 286 291 294 299 302 304 303 300 299 300 298 293 290 294 299 304 306 303 298 310 296 290 290 293 296
41 37 55 94 159 154 183 202 228 261 273 281 284 287 286 289 288 287 293 293 294 301 304 305 305 301 304 304 305 298 289 291 294 293 291 292 295 299 303 291 287 290 303
80 95 114 126 141 149 178 198 259 280 279 285 290 287 285 282 286 288 296 306 302 302 305 305 305 302 298 301 309 310 297 288 284 282 285 297 299 299 291 296 298 288 303
105 118 126 140 150 156 149 265 307 309 301 292 290 288 286 287 292 307 314 307 309 309 307 305 309 310 311 312 305 300 299 297 293 291 277 282 283 283 288 296 292 295 306
103 127 143 156 148 141 132 92 327 314 307 305 307 300 297 297 297 299 304 303 303 304 304 303 295 313 316 315 314 315 316 324 315 301 289 281 279 284 284 283 286 292 294
355 266 175 163 133 126 147 320 323 309 312 299 304 313 311 304 300 299 302 306 311 310 315 316 322 330 332 339 328 322 326 333 327 305 291 284 278 275 285 276 280 283 280
159 269 319 258 324 11 62 335 313 300 296 311 318 312 310 316 311 316 320 319 323 326 328 326 326 324 329 332 329 327 333 334 332 326 306 294 293 294 297 288 288 284 275
182 135 354 10 35 73 326 358 314 314 332 330 334 332 328 326 333 333 332 333 329 328 331 331 328 324 334 343 346 343 343 337 332 331 328 322 316 312 308 302 301 301 288
91 111 84 29 7 9 19 349 340 331 332 331 333 336 331 330 331 339 339 337 345 345 351 351 350 347 336 344 348 339 336 331 329 328 337 330 322 316 315 309 314 308 290